Weather History for KRAL - January, 2014

Change the Weather History Date:

Sunday, January 19, 2014

  Actual Average Record
Temperature  
Mean Temperature 63 °F 55 °F  
Max Temperature 80 °F 67 °F 90 °F (1971)
Min Temperature 45 °F 44 °F 27 °F (1943)
Degree Days  
Heating Degree Days 2 10  
Month to date heating degree days 93 194  
Since 1 July heating degree days 481 720  
Cooling Degree Days 0 0  
Month to date cooling degree days 10 0  
Year to date cooling degree days 10 0  
Growing Degree Days 14 (Base 50)    
Moisture  
Dew Point 20 °F    
Average Humidity 21    
Maximum Humidity 34    
Minimum Humidity 7    
Precipitation  
Precipitation 0.00 in 0.10 in 1.59 in (1954)
Month to date precipitation 0.00 2.13  
Year to date precipitation 0.00 2.13  
Since 1 July precipitation 1.15 5.34  
Snow  
Snow 0.00 in - - ()
Month to date snowfall 0.0  
Year to date snowfall 0.0  
Since 1 July snowfall 0.0  
Snow Depth 0.00 in    
Sea Level Pressure  
Sea Level Pressure 30.06 in    
Wind  
Wind Speed 4 mph (NNE)    
Max Wind Speed 9 mph    
Max Gust Speed 14 mph    
Visibility 10 miles    
Events      
T = Trace of Precipitation, MM = Missing Value Source: NWS Daily Summary

Daily Weather History Graph

Daily Weather History Graph

Search for Another Location

Airport or City:

Trip Planner

Search our weather history database for the weather conditions in past years. The results will help you decide how hot, cold, wet, or windy it might be!

Date:

Astronomy

Jan. 19, 2014 Rise Set
Actual Time 6:53 AM PST 5:07 PM PST
Civil Twilight 6:26 AM PST 5:34 PM PST
Nautical Twilight 5:56 AM PST 6:05 PM PST
Astronomical Twilight 5:26 AM PST 6:35 PM PST
Moon 8:38 PM PST (1/19) 8:37 AM PST (1/19)
Length of Visible Light 11h 07m
Length of Day
10h 14m
Waning Gibbous, 89% of the Moon is Illuminated
Jan 19
Waning Gibbous
Jan 23
Last Quarter
Jan 30
New
Feb 6
First Quarter
Feb 14
Full

Hourly Weather History & Observations

Time (PST) Temp. Dew Point Humidity Pressure Visibility Wind Dir Wind Speed Gust Speed Precip Events Conditions
12:53 AM 57.0 °F 17.1 °F 21% 30.02 in 10.0 mi Calm Calm - N/A   Clear
1:53 AM 55.0 °F 18.0 °F 23% 30.03 in 10.0 mi NE 8.1 mph - N/A   Clear
2:53 AM 51.1 °F 19.9 °F 29% 30.04 in 10.0 mi ENE 4.6 mph - N/A   Clear
3:53 AM 52.0 °F 19.0 °F 27% 30.04 in 10.0 mi NE 6.9 mph - N/A   Clear
4:53 AM 51.1 °F 19.9 °F 29% 30.04 in 10.0 mi NE 3.5 mph - N/A   Clear
5:53 AM 51.1 °F 19.0 °F 28% 30.05 in 10.0 mi NNE 6.9 mph - N/A   Clear
6:53 AM 48.0 °F 21.0 °F 34% 30.07 in 10.0 mi Calm Calm - N/A   Clear
7:53 AM 52.0 °F 19.0 °F 27% 30.08 in 10.0 mi NE 6.9 mph - N/A   Clear
8:53 AM 54.0 °F 19.9 °F 26% 30.10 in 10.0 mi ENE 3.5 mph - N/A   Clear
9:53 AM 59.0 °F 21.9 °F 24% 30.11 in 10.0 mi Calm Calm - N/A   Clear
10:53 AM 64.0 °F 26.1 °F 24% 30.10 in 10.0 mi Calm Calm - N/A   Mostly Cloudy
11:53 AM 70.0 °F 17.1 °F 13% 30.07 in 10.0 mi WNW 4.6 mph - N/A   Clear
12:53 PM 77.0 °F 16.0 °F 10% 30.03 in 10.0 mi West 3.5 mph - N/A   Mostly Cloudy
1:53 PM 79.0 °F 9.0 °F 7% 30.02 in 10.0 mi West 4.6 mph - N/A   Scattered Clouds
2:53 PM 80.1 °F 10.9 °F 7% 30.01 in 10.0 mi West 6.9 mph - N/A   Scattered Clouds
3:53 PM 79.0 °F 12.0 °F 8% 30.01 in 10.0 mi West 6.9 mph - N/A   Clear
4:53 PM 73.9 °F 15.1 °F 11% 30.01 in 10.0 mi West 3.5 mph - N/A   Scattered Clouds
5:53 PM 69.1 °F 18.0 °F 14% 30.04 in 10.0 mi Calm Calm - N/A   Scattered Clouds
6:53 PM 64.9 °F 23.0 °F 20% 30.06 in 10.0 mi Calm Calm - N/A   Clear
7:53 PM 62.1 °F 26.1 °F 25% 30.06 in 10.0 mi SE 3.5 mph - N/A   Clear
8:53 PM 59.0 °F 27.0 °F 29% 30.08 in 10.0 mi Calm Calm - N/A   Clear
9:53 PM 59.0 °F 26.1 °F 28% 30.09 in 10.0 mi NE 4.6 mph - N/A   Clear
10:53 PM 53.1 °F 30.0 °F 41% 30.09 in 10.0 mi ENE 3.5 mph - N/A   Clear
11:53 PM 53.1 °F 25.0 °F 34% 30.09 in 10.0 mi SE 3.5 mph - N/A   Clear